2e0sey-13 Saltney UK current weather conditions

sailwx.info

Wind from 188 at 1 knots gusting 5

Air temperature 15.6° C
Dewpoint 9.7° C

Last reported at 2019-Jun-27 07:01 UTC.
Time now 2019-Jun-27 08:04 UTC

Location: N 53°10' W 002°56'.
View on Google Maps.

See reports from other nearby stations

  
Tides and Currents Weather Stations Pressure Air Temp Water Temp Dewpoint Dewpoint Depression Visibility Wind Speed Wind Dir Waves Ship Positions
date/time (UTC)wind fromknots sea level pressurealtimeterstation pressurevisibilityair tempwater tempwave heightnotes
2019-Jun-27 07:01 188 1 gusting 5 15.6
2019-Jun-27 06:51 161 0 gusting 3 15.6
2019-Jun-27 06:41 125 1 gusting 5 14.4
2019-Jun-27 06:31 118 0 gusting 3 13.3
2019-Jun-27 06:20 143 1 gusting 3 12.8
2019-Jun-27 06:10 196 0 gusting 2 12.8
2019-Jun-27 06:00 176 0 gusting 3 12.2
2019-Jun-27 05:50 176 1 gusting 5 12.2
2019-Jun-27 05:40 135 0 gusting 2 11.7
2019-Jun-27 05:30 155 0 gusting 2 11.7
2019-Jun-27 05:20 135 0 gusting 2 11.1
2019-Jun-27 05:10 135 11.1
2019-Jun-27 05:00 157 10.6
2019-Jun-27 04:50 137 10.6
2019-Jun-27 04:00 135 10.6
2019-Jun-27 03:50 135 10.6
2019-Jun-27 03:40 164 10.6
2019-Jun-27 03:30 157 11.1
2019-Jun-27 03:20 154 0 gusting 2 11.1
2019-Jun-27 03:10 180 11.1
2019-Jun-27 03:00 180 11.1
2019-Jun-27 02:50 180 11.1
2019-Jun-27 02:41 11.1
2019-Jun-27 02:31 174 11.7
2019-Jun-27 02:21 151 11.7
2019-Jun-27 02:10 148 11.7
2019-Jun-27 02:00 165 12.2
2019-Jun-27 01:50 146 12.2
2019-Jun-27 01:40 110 0 gusting 2 12.2
2019-Jun-27 01:30 135 12.8
2019-Jun-27 01:20 135 12.8
2019-Jun-27 01:10 127 1 gusting 2 12.8
2019-Jun-27 01:00 123 1 gusting 3 13.3
2019-Jun-27 00:50 154 0 gusting 2 13.3
2019-Jun-27 00:41 103 13.3
2019-Jun-27 00:31 152 13.3
2019-Jun-27 00:21 135 1 gusting 3 13.3
2019-Jun-27 00:10 135 0 gusting 3 13.3
2019-Jun-27 00:00 095 0 gusting 3 13.3
2019-Jun-26 23:50 097 13.9
2019-Jun-26 23:40 103 1 gusting 3 13.9
2019-Jun-26 23:30 109 1 gusting 3 13.9
2019-Jun-26 23:20 127 0 gusting 3 13.9
2019-Jun-26 23:10 131 0 gusting 2 13.9
2019-Jun-26 23:00 153 0 gusting 2 13.9
2019-Jun-26 12:01 082 0 gusting 3 20.6
2019-Jun-26 11:51 340 20.0
2019-Jun-26 11:41 104 0 gusting 3 18.3
2019-Jun-26 11:30 100 0 gusting 2 17.8
2019-Jun-26 11:20 074 0 gusting 2 17.8
2019-Jun-26 11:10 083 17.8
2019-Jun-26 11:00 093 0 gusting 3 18.3
2019-Jun-26 10:50 095 1 gusting 4 17.8
2019-Jun-26 10:40 069 0 gusting 3 18.3
2019-Jun-26 10:30 068 0 gusting 2 17.8
2019-Jun-26 10:20 056 0 gusting 2 17.2
2019-Jun-26 10:10 054 0 gusting 2 17.2
2019-Jun-26 10:01 105 0 gusting 2 17.2
2019-Jun-26 09:51 004 16.7
2019-Jun-26 09:41 114 0 gusting 2 16.7
2019-Jun-26 09:31 084 16.1
2019-Jun-26 09:20 055 0 gusting 2 15.6
2019-Jun-26 09:10 099 0 gusting 3 15.6
2019-Jun-26 09:00 071 15.6
2019-Jun-26 08:50 085 15.6
2019-Jun-26 08:40 087 0 gusting 3 15.6
2019-Jun-26 08:30 104 15.0
2019-Jun-26 08:20 075 0 gusting 1 15.0
2019-Jun-26 08:10 125 15.0
2019-Jun-26 08:00 067 15.0
2019-Jun-26 05:10 077 13.9
2019-Jun-26 05:00 090 13.9
2019-Jun-26 04:50 075 13.9
2019-Jun-26 04:40 033 0 gusting 2 13.9
2019-Jun-26 04:30 13.9
2019-Jun-26 04:20 13.9
2019-Jun-26 04:10 041 13.9
2019-Jun-26 04:00 13.9
2019-Jun-26 03:51 064 0 gusting 3 13.9
2019-Jun-26 03:41 104 0 gusting 2 13.9
2019-Jun-26 03:31 090 13.9
2019-Jun-26 03:21 082 13.9
2019-Jun-26 03:10 083 0 gusting 2 13.9
2019-Jun-26 03:00 054 0 gusting 2 13.9
2019-Jun-26 02:50 112 13.9
2019-Jun-26 02:40 070 13.9
2019-Jun-26 02:30 061 0 gusting 2 13.9
2019-Jun-26 02:20 070 1 gusting 4 13.9
2019-Jun-26 02:10 049 0 gusting 2 13.9
2019-Jun-26 02:00 139 1 gusting 6 14.4
2019-Jun-26 01:50 080 0 gusting 3 14.4
2019-Jun-26 01:41 061 14.4
2019-Jun-26 01:31 030 14.4
2019-Jun-26 01:21 348 0 gusting 3 14.4
2019-Jun-26 01:10 021 14.4
2019-Jun-26 01:00 045 14.4
2019-Jun-26 00:50 045 14.4
2019-Jun-26 00:40 015 14.4
2019-Jun-26 00:30 022 14.4
2019-Jun-26 00:20 059 14.4
2019-Jun-26 00:10 007 0 gusting 2 14.4
2019-Jun-26 00:00 117 14.4
2019-Jun-25 23:50 14.4
2019-Jun-25 23:40 068 0 gusting 2 15.0
2019-Jun-25 23:31 045 15.0
2019-Jun-25 23:21 090 0 gusting 3 15.0
2019-Jun-25 23:11 090 0 gusting 2 15.0
2019-Jun-25 23:00 082 15.0
2019-Jun-25 22:50 028 15.0
2019-Jun-25 22:40 081 15.6
2019-Jun-25 22:30 067 1 gusting 5 15.6
2019-Jun-25 22:20 064 1 gusting 4 15.6
2019-Jun-25 22:10 090 0 gusting 2 15.6
2019-Jun-25 22:00 077 0 gusting 3 16.1
2019-Jun-25 21:50 064 0 gusting 2 16.1
2019-Jun-25 21:40 072 0 gusting 2 16.1
2019-Jun-25 21:31 070 1 gusting 4 16.1
2019-Jun-25 21:21 057 1 gusting 3 16.1
2019-Jun-25 21:00 093 0 gusting 3 16.7
2019-Jun-25 20:50 069 0 gusting 4 16.7
2019-Jun-25 20:40 097 1 gusting 5 16.7
2019-Jun-25 20:30 070 1 gusting 5 16.7
2019-Jun-25 20:20 061 1 gusting 5 16.7
2019-Jun-25 20:10 090 0 gusting 3 16.7
2019-Jun-25 20:00 083 1 gusting 3 17.2
2019-Jun-25 19:50 082 1 gusting 5 17.2
2019-Jun-25 19:40 074 2 gusting 5 17.2
2019-Jun-25 19:31 042 2 gusting 6 17.2
2019-Jun-25 19:21 093 1 gusting 4 17.8
2019-Jun-25 19:11 076 1 gusting 3 17.8
2019-Jun-25 19:01 058 1 gusting 3 18.9
2019-Jun-25 18:50 087 0 gusting 4 18.9
2019-Jun-25 18:40 050 1 gusting 5 18.9
2019-Jun-25 18:30 069 2 gusting 6 19.4
2019-Jun-25 18:20 053 1 gusting 4 19.4
2019-Jun-25 18:10 074 1 gusting 3 19.4
2019-Jun-25 18:00 096 0 gusting 6 19.4
2019-Jun-25 17:50 062 0 gusting 3 20.0
2019-Jun-25 17:40 112 1 gusting 5 20.0
2019-Jun-25 17:31 075 1 gusting 5 20.0
2019-Jun-25 17:21 094 1 gusting 4 20.0
2019-Jun-25 17:11 058 0 gusting 3 20.0
2019-Jun-25 17:00 103 1 gusting 5 20.0
2019-Jun-25 16:50 062 0 gusting 3 20.0
2019-Jun-25 16:40 072 1 gusting 4 20.0
2019-Jun-25 16:30 066 1 gusting 4 20.0
2019-Jun-25 16:20 100 0 gusting 3 20.0
2019-Jun-25 16:10 080 1 gusting 4 20.0
2019-Jun-25 16:00 057 1 gusting 4 20.0
2019-Jun-25 15:50 074 0 gusting 5 20.6
2019-Jun-25 15:40 059 1 gusting 4 20.6
2019-Jun-25 15:31 073 0 gusting 2 21.1
2019-Jun-25 15:21 027 0 gusting 3 21.1
2019-Jun-25 15:11 036 1 gusting 5 21.7
2019-Jun-25 09:00 309 2 gusting 5 16.7
2019-Jun-25 08:50 327 1 gusting 4 16.1
2019-Jun-25 08:40 335 1 gusting 3 16.1
2019-Jun-25 08:30 332 1 gusting 4 16.1
2019-Jun-25 08:21 303 1 gusting 3 16.1
2019-Jun-25 08:11 319 1 gusting 4 16.1
2019-Jun-25 08:01 16.1